[[{"header":{"parameterUnit":"m.s-1","parameterCategory":1,"la1":30.2991,"la2":30.254,"lo1":-89.0895,"lo2":-89.0444,"dy":0.0017,"dx":0.0017,"nx":28,"ny":28,"refTime":"2025-04-01T09:00:00:Z","depth":0,"parameterNumber":2,"parameterNumberName":"U-component_of_WINDS"},"data":[0,0,0,0,0,0,0,0,0,0,0,0,0,0,0,0,0,0,0,0,0,0,0,0,0,0,0,0,0,0,0,0,0,0,0,0,0,0,0,0,0,0,0,0,0,0,0,0,0,0,0,0,0,0,0,0,0,0,-3.7212,-3.7213,0,-3.7336,-3.7338,-3.7339,-3.7372,-3.7371,-3.737,-3.737,-3.7498,-3.7502,-3.7507,0,0,0,0,0,0,0,0,0,0,0,0,0,-3.7005,-3.7009,-3.7212,-3.7213,-3.7215,-3.7336,-3.7338,-3.7339,-3.7372,-3.7371,-3.737,-3.7369,-3.7497,-3.7502,-3.7507,0,0,0,0,0,0,0,0,0,0,0,0,0,-3.7109,-3.701,-3.7212,-3.7246,-3.725,-3.7336,-3.7338,-3.734,-3.7372,-3.7371,-3.737,-3.7369,-3.7495,-3.7502,-3.7508,-3.7569,0,0,-3.7527,-3.7529,0,0,0,0,0,0,0,0,-3.7103,-3.7116,-3.7239,-3.7244,-3.7249,-3.7337,-3.7312,-3.7417,-3.7372,-3.7326,-3.737,-3.7368,-3.7446,-3.7456,-3.7482,-3.7575,-3.758,-3.7527,-3.7531,-3.7534,-3.7535,0,0,0,0,0,0,0,-3.7096,-3.7111,-3.7261,-3.7241,-3.7247,-3.7256,-3.7269,-3.7332,-3.7391,-3.733,-3.7332,-3.7347,-3.7448,-3.7476,-3.7485,-3.7582,-3.7527,-3.7532,-3.7536,-3.7539,-3.7732,-3.7733,0,0,0,0,0,0,-3.7082,-3.7105,-3.7257,-3.7265,-3.7171,-3.726,-3.7275,-3.731,-3.739,-3.7401,-3.7348,-3.7348,-3.7466,-3.7478,-3.749,-3.7566,-3.7534,-3.7539,-3.7543,-3.7731,-3.7732,-3.7734,0,0,0,0,0,0,-3.7078,-3.7096,-3.7252,-3.7186,-3.7206,-3.7265,-3.7304,-3.7313,-3.7341,-3.7404,-3.7414,-3.7365,-3.7465,-3.7481,-3.7549,-3.7571,-3.7542,-3.7548,-3.7729,-3.7731,-3.7733,-3.772,0,0,0,0,0,0,-3.7072,-3.7094,-3.7117,-3.7186,-3.721,-3.7308,-3.7305,-3.7316,-3.7351,-3.7353,-3.7423,-3.7433,-3.7466,-3.7539,-3.7555,-3.7579,-3.7553,-3.7727,-3.773,-3.7732,-3.7719,-3.7721,-3.7724,0,0,0,0,0,-3.7064,-3.7108,-3.7118,-3.7136,-3.724,-3.7309,-3.7323,-3.7359,-3.7353,-3.7377,-3.7418,-3.7431,-3.7567,-3.7546,-3.7564,-3.759,-3.7726,-3.7729,-3.7732,-3.7717,-3.7721,-3.7724,0,0,0,0,0,0,-3.7041,-3.7118,-3.7129,-3.7197,-3.7246,-3.7315,-3.7346,-3.7362,-3.7414,-3.7413,-3.7457,-3.7472,-3.7537,-3.7571,-3.7547,-3.7654,-3.7647,-3.7653,-3.7629,-3.7633,-3.7635,-3.7625,-3.7558,0,0,0,0,0,-3.7043,-3.7093,-3.7158,-3.7212,-3.7236,-3.7287,-3.7318,-3.7342,-3.7395,-3.7416,-3.7462,-3.7513,-3.7568,-3.7603,-3.7656,-3.7724,-3.774,-3.7752,-3.7754,-3.7756,-3.7761,-3.78,-3.7806,-3.7744,-3.7744,-3.7744,0,0,-3.7049,-3.7098,-3.7126,-3.7208,-3.7249,-3.73,-3.7304,-3.7358,-3.7396,-3.7425,-3.7491,-3.7526,-3.7587,-3.7655,-3.7687,-3.7685,-3.7782,-3.776,-3.7761,-3.7765,-3.7804,-3.7809,-3.7815,-3.7746,-3.7746,-3.7746,0,0,-3.7086,-3.7128,-3.7177,-3.7218,-3.728,-3.7313,-3.7325,-3.7392,-3.7416,-3.7484,-3.7506,-3.7553,-3.7646,-3.7688,-3.7722,-3.7776,-3.779,-3.7792,-3.7805,-3.7842,-3.7847,-3.7852,-3.7871,-3.7877,-3.7798,-3.7798,-3.7798,0,-3.7085,-3.7162,-3.72,-3.7253,-3.7288,-3.7317,-3.7367,-3.7406,-3.7482,-3.7506,-3.7503,-3.762,-3.7663,-3.7741,-3.7755,-3.7781,-3.7796,-3.7784,-3.7843,-3.7848,-3.7853,-3.7872,-3.7879,-3.7797,-3.7797,-3.7797,-3.7797,0,-3.7158,-3.7211,-3.7244,-3.7316,-3.7356,-3.7407,-3.7454,-3.7489,-3.751,-3.7545,-3.7613,-3.7666,-3.7731,-3.7752,-3.7773,-3.7833,-3.783,-3.7835,-3.7828,-3.7858,-3.7876,-3.7883,-3.7797,-3.7797,-3.7797,-3.7797,0,0,-3.7182,-3.7276,-3.7287,-3.732,-3.7391,-3.7433,-3.7487,-3.7549,-3.7579,-3.7632,-3.7677,-3.7756,-3.7761,-3.7799,-3.7825,-3.7858,-3.7897,-3.7859,-3.7861,-3.7863,-3.7967,-3.7962,-3.797,-3.7908,-3.7909,-3.7911,-3.7962,0,-3.7227,-3.7321,-3.7358,-3.7435,-3.7485,-3.7514,-3.756,-3.7609,-3.7643,-3.7691,-3.7729,-3.7784,-3.7786,-3.781,-3.7844,-3.7885,-3.7918,-3.7882,-3.7951,-3.7953,-3.7933,-3.798,-3.7975,-3.802,-3.7969,-3.7971,-3.7972,0,-3.7291,-3.7343,-3.7425,-3.7491,-3.7513,-3.7554,-3.7615,-3.766,-3.7717,-3.774,-3.7783,-3.7807,-3.7865,-3.7855,-3.7936,-3.791,-3.7941,-3.7966,-3.7969,-3.7975,-3.7963,-3.7986,-3.8036,-3.8042,-3.7983,-3.7982,-3.7981,0,-3.7299,-3.739,-3.7451,-3.7479,-3.7557,-3.7585,-3.7619,-3.7675,-3.7711,-3.7764,-3.7788,-3.7848,-3.7881,-3.7927,-3.7968,-3.7957,-3.8044,-3.8038,-3.8065,-3.8064,-3.8081,-3.8079,-3.8134,-3.8102,-3.8102,-3.8102,-3.8102,0,-3.7344,-3.7393,-3.7456,-3.7493,-3.7549,-3.7592,-3.7646,-3.7682,-3.7732,-3.7777,-3.7807,-3.7849,-3.7901,-3.795,-3.7982,-3.8044,-3.8059,-3.8079,-3.8087,-3.8075,-3.8073,-3.8095,-3.8093,-3.8104,-3.8104,-3.8103,-3.8103,0,-3.7362,-3.7406,-3.7474,-3.7542,-3.7561,-3.7599,-3.7658,-3.7696,-3.7732,-3.7789,-3.7805,-3.7862,-3.7921,-3.7967,-3.8045,-3.8066,-3.8131,-3.814,-3.8112,-3.8115,-3.8139,-3.8136,-3.821,-3.8222,-3.8183,-3.8183,-3.8183,0,-3.7387,-3.7426,-3.7498,-3.753,-3.7564,-3.7616,-3.7652,-3.7696,-3.7733,-3.7801,-3.7831,-3.7892,-3.7944,-3.8038,-3.8086,-3.8146,-3.8156,-3.8178,-3.8165,-3.8153,-3.8155,-3.8152,-3.8156,-3.8179,-3.8179,-3.8179,-3.818,0,-3.7428,-3.7448,-3.7499,-3.7558,-3.76,-3.7649,-3.7698,-3.7723,-3.7776,-3.7816,-3.7877,-3.7917,-3.7996,-3.8057,-3.8122,-3.8158,-3.8178,-3.8184,-3.8193,-3.8181,-3.8163,-3.8172,-3.8115,-3.8181,-3.8181,-3.8181,-3.8181,-3.8181,-3.745,-3.7485,-3.7542,-3.7598,-3.7639,-3.7685,-3.7724,-3.7764,-3.7816,-3.7883,-3.7906,-3.7969,-3.8026,-3.8115,-3.8152,-3.8202,-3.8203,-3.8216,-3.8219,-3.8222,-3.822,-3.8155,-3.8215,-3.8215,-3.8215,-3.8215,-3.8215,0,-3.7491,-3.7529,-3.758,-3.7648,-3.7692,-3.7707,-3.7762,-3.7799,-3.7853,-3.7904,-3.7954,-3.8025,-3.8084,-3.8138,-3.82,-3.823,-3.824,-3.8245,-3.8242,-3.825,-3.8217,-3.8202,-3.8235,-3.8235,-3.8235,-3.8235,-3.8235,-3.8235,-3.7518,-3.7578,-3.7605,-3.7687,-3.7725,-3.7785,-3.7816,-3.7859,-3.79,-3.7976,-3.8026,-3.806,-3.8113,-3.8179,-3.8234,-3.8249,-3.827,-3.8272,-3.8288,-3.8255,-3.8253,-3.825,-3.8236,-3.8276,-3.8276,-3.8317,-3.8318,-3.8318]},{"header":{"parameterUnit":"m.s-1","parameterCategory":1,"la1":30.2991,"la2":30.254,"lo1":-89.0895,"lo2":-89.0444,"dy":0.0017,"dx":0.0017,"nx":28,"ny":28,"refTime":"2025-04-01T09:00:00:Z","depth":0,"parameterNumber":3,"parameterNumberName":"V-component_of_WINDS"},"data":[0,0,0,0,0,0,0,0,0,0,0,0,0,0,0,0,0,0,0,0,0,0,0,0,0,0,0,0,0,0,0,0,0,0,0,0,0,0,0,0,0,0,0,0,0,0,0,0,0,0,0,0,0,0,0,0,0,0,6.1782,6.1783,0,6.1865,6.1866,6.1867,6.1862,6.1861,6.1859,6.1858,6.194,6.1944,6.1947,0,0,0,0,0,0,0,0,0,0,0,0,0,6.1616,6.1619,6.1782,6.1783,6.1784,6.1865,6.1866,6.1868,6.1862,6.186,6.1859,6.1858,6.1939,6.1943,6.1947,0,0,0,0,0,0,0,0,0,0,0,0,0,6.1692,6.162,6.1781,6.1791,6.1793,6.1865,6.1866,6.1868,6.1862,6.186,6.1859,6.1857,6.1938,6.1943,6.1948,6.2015,0,0,6.1963,6.1965,0,0,0,0,0,0,0,0,6.1688,6.1698,6.1788,6.179,6.1792,6.1851,6.1838,6.1917,6.1863,6.1836,6.1858,6.1856,6.1912,6.1919,6.1939,6.2019,6.2023,6.1963,6.1966,6.1969,6.197,0,0,0,0,0,0,0,6.1683,6.1695,6.1815,6.179,6.1792,6.1791,6.1799,6.1853,6.1883,6.1838,6.1838,6.1848,6.1913,6.1934,6.194,6.2024,6.1963,6.1968,6.1971,6.1973,6.2167,6.2169,0,0,0,0,0,0,6.1676,6.169,6.1812,6.1817,6.1735,6.1795,6.1805,6.1834,6.1882,6.1888,6.1849,6.1847,6.1926,6.1935,6.1943,6.2028,6.1969,6.1973,6.1976,6.2165,6.2167,6.217,0,0,0,0,0,0,6.1672,6.1687,6.1809,6.1754,6.1769,6.18,6.1833,6.1837,6.1858,6.1891,6.1896,6.1866,6.1925,6.1936,6.1998,6.203,6.1975,6.198,6.2162,6.2165,6.2168,6.2195,0,0,0,0,0,0,6.1667,6.1685,6.1711,6.1755,6.1772,6.1863,6.1835,6.184,6.1867,6.1865,6.1908,6.1913,6.1924,6.1991,6.2003,6.2036,6.1984,6.2159,6.2164,6.2167,6.2192,6.2199,6.2206,0,0,0,0,0,6.1661,6.1714,6.1713,6.1727,6.1806,6.1865,6.1875,6.1888,6.187,6.1896,6.1918,6.1912,6.2025,6.1997,6.2011,6.2046,6.2157,6.2162,6.2167,6.2189,6.2198,6.2205,0,0,0,0,0,0,6.1672,6.172,6.1719,6.1787,6.1822,6.1863,6.1897,6.1896,6.1936,6.1933,6.1946,6.1956,6.2019,6.2038,6.2007,6.2115,6.2089,6.2096,6.21,6.2109,6.2116,6.211,6.1988,0,0,0,0,0,6.1683,6.1727,6.1766,6.1823,6.1841,6.1866,6.1892,6.19,6.1936,6.195,6.1976,6.2011,6.2055,6.2083,6.2124,6.2195,6.2205,6.2226,6.2232,6.2238,6.2245,6.2286,6.2296,6.2186,6.2185,6.2185,0,0,6.1704,6.1736,6.1763,6.1826,6.1854,6.19,6.1878,6.1927,6.1961,6.1957,6.2018,6.2039,6.2078,6.2146,6.2176,6.2164,6.2278,6.2244,6.2248,6.2252,6.2292,6.2302,6.2312,6.2189,6.2188,6.2188,0,0,6.1768,6.1796,6.1848,6.1877,6.192,6.1937,6.195,6.1992,6.2006,6.2068,6.2067,6.2107,6.2181,6.2211,6.2235,6.2313,6.2309,6.2326,6.2362,6.2402,6.241,6.2418,6.2448,6.2458,6.2332,6.2333,6.2333,0,6.1789,6.1859,6.1874,6.1924,6.1953,6.1953,6.2006,6.2033,6.2087,6.2107,6.2092,6.2188,6.2214,6.2289,6.2309,6.2328,6.2343,6.2321,6.2408,6.2416,6.2424,6.2452,6.2463,6.2334,6.2334,6.2334,6.2334,0,6.1884,6.1933,6.1969,6.2024,6.2057,6.2108,6.213,6.2161,6.2166,6.2185,6.2249,6.2281,6.2331,6.2349,6.2353,6.2426,6.2417,6.2405,6.2379,6.2436,6.2463,6.2474,6.2337,6.2336,6.2336,6.2335,0,0,6.1956,6.2021,6.2034,6.206,6.2109,6.2147,6.2198,6.2248,6.2276,6.2313,6.2358,6.2422,6.2412,6.244,6.2448,6.2483,6.2545,6.2467,6.2468,6.2482,6.2629,6.2639,6.2651,6.2543,6.2545,6.2547,6.2626,0,6.2026,6.2119,6.2135,6.2216,6.2263,6.2265,6.231,6.2345,6.2364,6.2406,6.2426,6.2473,6.2455,6.2473,6.2507,6.253,6.2575,6.2525,6.2585,6.2587,6.2576,6.2665,6.2674,6.2748,6.2637,6.2638,6.264,0,6.212,6.2163,6.225,6.2295,6.2315,6.2355,6.2404,6.2444,6.2484,6.2496,6.2528,6.2533,6.2587,6.2558,6.2634,6.2599,6.2625,6.264,6.2643,6.265,6.2617,6.2675,6.2771,6.2783,6.2656,6.2655,6.2654,0,6.2166,6.2245,6.2308,6.233,6.2384,6.2413,6.2436,6.2475,6.2505,6.2547,6.2567,6.2614,6.264,6.2677,6.2695,6.2672,6.277,6.2741,6.2781,6.2781,6.2802,6.2801,6.2905,6.2817,6.2817,6.2816,6.2816,0,6.2243,6.2296,6.233,6.2368,6.2429,6.2447,6.2506,6.2528,6.2563,6.2607,6.261,6.2651,6.2671,6.2715,6.2729,6.279,6.2801,6.2813,6.2816,6.2813,6.2812,6.2831,6.2827,6.2819,6.2819,6.2818,6.2818,0,6.2305,6.2329,6.2398,6.2445,6.2458,6.25,6.254,6.2578,6.2598,6.2653,6.2667,6.2697,6.2749,6.2771,6.2833,6.2843,6.2914,6.2913,6.2901,6.2903,6.2942,6.2939,6.3063,6.3081,6.2979,6.298,6.2981,0,6.2353,6.2395,6.2447,6.2477,6.2502,6.255,6.2582,6.2601,6.2634,6.2684,6.2716,6.2769,6.2812,6.2894,6.2922,6.2971,6.2971,6.3012,6.2979,6.2976,6.2974,6.2972,6.2977,6.3018,6.3019,6.302,6.302,0,6.2437,6.2448,6.2494,6.2545,6.2583,6.2623,6.2663,6.2687,6.2713,6.2749,6.2804,6.2837,6.2903,6.2955,6.3006,6.303,6.303,6.3031,6.3043,6.3041,6.3034,6.304,6.2919,6.3028,6.3027,6.3027,6.3026,6.3026,6.2495,6.2533,6.2576,6.2628,6.266,6.2698,6.2737,6.2763,6.2809,6.2865,6.2873,6.2932,6.2972,6.3041,6.3067,6.3113,6.3103,6.312,6.3125,6.3129,6.3133,6.3026,6.3122,6.3122,6.3122,6.3122,6.3122,0,6.258,6.2609,6.2657,6.2713,6.2754,6.2752,6.2797,6.2831,6.2883,6.2922,6.2965,6.3028,6.308,6.3112,6.3164,6.3195,6.3196,6.3208,6.3206,6.3212,6.3138,6.3123,6.3206,6.3206,6.3206,6.3206,6.3206,6.3206,6.263,6.2695,6.2712,6.2793,6.2821,6.288,6.2906,6.2941,6.2972,6.3044,6.3087,6.3109,6.3145,6.3201,6.3248,6.3256,6.3276,6.3288,6.3296,6.3226,6.3217,6.3209,6.3195,6.3292,6.3292,6.3367,6.3368,6.3368]}]]